Regional Weather Roundup
Issued by NWS Wakefield, VA

Home | Current Version | Previous Version | Text Only | Print | Product List | Glossary On
Versions: 1 2 3 4 5 6 7 8 9 10 11 12 13 14 15 16 17 18 19 20 21 22 23 24 25 26 27
000
ASUS41 KAKQ 142015
RWRAKQ

REGIONAL WEATHER ROUNDUP
NATIONAL WEATHER SERVICE WAKEFIELD VA
300 PM EST THU DEC 14 2017

Note: "fair" indicates few or no clouds below 12,000 feet with no
significant weather and/or obstructions to visibility. * = Denotes
station may not report precipitation (e.g., rain,snow,etc.),
thunder or fog.

VAZ042-051-052>054-056-142100-
NORTHERN VIRGINIA

CITY           SKY/WX    TMP DP  RH WIND       PRES   REMARKS
WASH NATIONAL  PTSUNNY   40  16  37 N13       29.93R
DULLES         PTSUNNY   39  17  41 NW16      29.92R
FORT BELVOIR   SUNNY     41  15  35 NW16G22   29.92R
QUANTICO       PTSUNNY   43  18  36 N9        29.94R
FREDERICKSBRG* MOSUNNY   43  21  41 NW10      29.91R
STAFFORD*        N/A    N/A N/A N/A MISG        N/A
WARRENTON      SUNNY     43  12  28 NW12      29.90R
CULPEPER*      SUNNY     44  15  32 N8        29.92R
MANASSAS*      SUNNY     40  17  39 NW10      29.93R
LEESBURG*      SUNNY     37  21  52 NW14G22   29.93R
WINCHESTER     CLOUDY    36  18  48 NW20      29.92R WCI  25
FRONT ROYAL*   PTCLDY    37  18  44 MISG      29.90R
LURAY*         PTCLDY    41  19  42 W8        29.90R
$$

VAZ048-049-060>072-079>083-142100-
CENTRAL AND SOUTH CENTRAL VIRGINIA

CITY           SKY/WX    TMP DP  RH WIND       PRES   REMARKS
RICHMOND       PTSUNNY   52  24  33 N6        29.87R
CHESTERFIELD*  NOT AVBL
PETERSBURG*    SUNNY     52  21  30 NW3       29.87R
HANOVER        SUNNY     47  22  37 NW8       29.89R
TAPPAHANNOCK*  SUNNY     43  23  44 N9        29.91R
QUINTON*       FAIR      48  24  38 NW5       29.87R
CHARLOTTSVILLE MOSUNNY   46  19  34 VRB6      29.88R
GORDONSVILLE*  CLEAR     45  21  38 W3        29.89R
ORANGE*        MOSUNNY   43  21  42 CALM      29.89R
LOUISA*        MOSUNNY   43  21  41 NE6       29.93R
BUMPASS*       FAIR      43  19  39 N5        29.89R
FARMVILLE*     MOSUNNY   49  23  35 NW5       29.86S
CREWE*         FAIR      51  25  35 N8        29.85R
FORT PICKETT*  NOT AVBL
CHASE CITY*    FAIR      49  26  39 NW3       29.86R
CLARKSVILLE*   FAIR      52  28  40 N5        29.85R
SOUTH HILL*    SUNNY     52  27  38 W7        29.91R
LAWRENCEVILLE* FAIR      53  25  33 W5        29.85R
EMPORIA*       SUNNY     52  28  40 W5        29.87R
$$

VAZ088>098-142100-
SOUTHEAST VIRGINIA

CITY           SKY/WX    TMP DP  RH WIND       PRES   REMARKS
NORFOLK        SUNNY     49  29  46 NE15      29.87R
VIRGINIA BEACH MOSUNNY   48  27  44 N14       29.87R
NORFOLK NAVAL  MOSUNNY   48  27  44 N13       29.89R
WEST POINT*    SUNNY    N/A N/A N/A NE6       29.90R
SALUDA*        FAIR      45  25  45 N9        29.89R
NEWPORT NEWS   SUNNY     50  25  37 N9        29.87R
LANGLEY AFB    SUNNY     48  26  42 N12       29.87R
FORT EUSTIS    SUNNY     50  25  38 NE5       29.84R
WILLIAMSBURG*  SUNNY     52  30  43 CALM      29.88R
HR EXEC AP*    FAIR      51  26  37 N10       29.87R
FRANKLIN*      SUNNY     54  27  35 NW8       29.86R
US460-WAKEFLD  SUNNY     52  25  35 N7        29.86R
$$

VAZ020-022-025-037-045-142100-
WEST CENTRAL AND SOUTHWEST VIRGINIA

CITY           SKY/WX    TMP DP  RH WIND       PRES   REMARKS
STAUNTON*      MOSUNNY   40  19  41 NW5       29.89R
WAYNESBORO*    CLEAR     40  19  42 W8        29.86R
HOT SPRINGS VA CLOUDY    26  17  66 W14       29.80R WCI  15
LYNCHBURG      SUNNY     45  19  35 NW5       29.88R
DANVILLE       MOSUNNY   51  25  36 NW7       29.86R
SOUTH BOSTON*  FAIR      51  25  36 N8        29.86R
MARTINSVILLE   MOSUNNY   49  24  37 W3        29.88R
ROANOKE        PTSUNNY   43  21  41 NW12      29.91R
BLACKSBURG     CLOUDY    38  24  55 NW9       29.89S
DUBLIN*        CLOUDY    40  24  52 W10       29.88R
MARION*        CLOUDY    40  22  48 W12       29.88R
HILLSVILLE*    MOSUNNY   38  23  55 W9        29.83R
RICHLANDS*     CLOUDY    34  24  67 NW7       29.88R
WISE*          CLOUDY    34  28  80 N6        29.88S
ABINGDON*      CLOUDY    41  27  56 N5        29.88R
$$

MDZ021>025-VAZ099-100-142100-
SOUTHERN MARYLAND AND THE DELMARVA PENINSULA

CITY           SKY/WX    TMP DP  RH WIND       PRES   REMARKS
PATUXENT RIVER PTSUNNY   42  18  37 NW22      29.90R
BAY BRIDGE APT SUNNY     37  16  41 NW13G21   29.91S
LEONARDTOWN    SUNNY     41  18  38 NW9       29.92R
DOVER          MOSUNNY   36  21  54 NW14      29.89R
GEORGETOWN     SUNNY     40  21  46 N9G18     29.89R
EASTON         MOSUNNY   39  16  38 N16G25    29.93R
CAMBRIDGE      SUNNY     39  18  41 NW23      29.88R
SALISBURY      SUNNY     41  22  46 N15G24    29.89R
OCEAN CITY     CLOUDY    42  22  44 N18G25    29.88R
WALLOPS ISLAND SUNNY     44  25  47 NW16      29.89R
ACCOMACK*      SUNNY     43  27  54 N12G21    29.90R
$$

NCZ012>017-030>032-142100-
NORTH CENTRAL AND EASTERN NORTH CAROLINA

CITY           SKY/WX    TMP DP  RH WIND       PRES   REMARKS
ROANOKE RAPIDS FAIR      55  28  35 NW9       29.85R
RALEIGH        MOSUNNY   56  24  29 VRB6      29.86R
ELIZABETH CITY SUNNY     56  31  38 NW10      29.86R
AHOSKIE*       SUNNY     54  28  36 NW3       29.86R
EDENTON*       SUNNY     57  28  33 NW12      29.86R
CURRITUCK*     SUNNY     55  28  34 NW5       29.85R
KILL DEVIL HLS SUNNY     52  28  38 W7        29.84R
MANTEO         SUNNY     53  29  40 NW8       29.86R
CAPE HATTERAS  SUNNY     53  36  52 VRB6      29.86R
TARBORO*       NOT AVBL
GOLDSBORO      SUNNY     60  26  28 W8        29.84R
WASHINGTON     SUNNY     57  26  30 CALM      29.85R
GREENVILLE     SUNNY     55  27  33 W3        29.87S
NEW BERN       SUNNY     58  31  35 W5        29.86R
WILMINGTON     SUNNY     62  29  28 W10       29.86S
$$

VAZ048-142100-
ELSEWHERE

CITY           SKY/WX    TMP DP  RH WIND       PRES   REMARKS
HARRISBURG PA  MOSUNNY   33  13  43 W20       29.91R WCI  21
BALTIMORE      PTSUNNY   37  15  40 W14G22    29.92R
ANNAPOLIS      SUNNY     39  21  48 NW14G22   29.91R
ANDREWS AFB    SUNNY     38  15  37 N13       29.90R
PHILADELPHIA   MOSUNNY   33  13  43 NW15G28   29.91R WCI  23
HENDERSON NC   SUNNY     50  23  34 W6        29.85R
GREENSBORO     PTSUNNY   53  25  33 NW6       29.85R
ROCKY MOUNT    SUNNY     57  26  30 W7        29.85S
$$

VAZ100-142100-
MARINE

STATION/POSITION TIME  TEMP    WIND        PRES    WAVE   SWELL
                       AIR SEA DIR/SP/G            HT/PER HT/PER
                 (UTC) (F)     (DEG/KT/KT) (MB)    (FT/S) (FT/S)
BRANDYWINE LGT   1936   35     340/ 19/ 24 1012.0R
CAPE MAY NJ      1948   35 38  330/ 17/ 24 1011.7R
LEWES DE         1948   37 44  340/ 20/ 25 1011.7R
15NM E FENWICK I 1950   40 52  320/ 25/ 29 1011.1R   7/ 6
OCEAN-CITY-INLET 1948   40 38  350/ 14/ 17 1011.8R
WACHAPREAGUE VA  1948   43 39  350/  9/ 17 1012.1R
THOMAS POINT MD  2000   38 45  310/ 13/ 16   N/A
GOOSES REEF MD   1950   40      20/ 17/ 23 1012.7R
COVE POINT MD    1948   40     350/ 20/ 25 1013.2R
SOLOMONS ISLAND  1948   41 46  330/ 11/ 17 1012.6R
BISHOPS HEAD MD  1948   39 37  360/  8/ 16 1012.6R
PINEY POINT MD   1948          340/ 16/ 18   N/A
POTOMAC MD       1950   42     350/ 12/ 16 1012.1R
CAMBRIDGE MD     1936   40 42              1012.8R
LEWISETTA VA     1948   41 43  360/ 10/ 13 1012.7R
RAPPAHANNOCK LGT 1948          360/ 23/ 25 1012.5R
STINGRAY PT      1950   45      10/ 12/ 16 1012.2R
YORK RVR RNG VA  1948   46      10/ 11/ 13 1012.0R
YORKTOWN VA      1948   47 47  310/  9/ 11 1011.2R
JAMESTOWN VA     1950          360/  6/  8   N/A
DOMINION TERM VA 1948   49      40/  6/  8 1011.5R
KIPTOPEKE VA     1948      45   10/ 12/ 17   N/A
CAPE HENRY VA    1948   46     360/ 17/ 19   N/A
WILLOUBY STN VA  1936           10/ 16/ 17 1011.3R
S CRANEY ISL VA  1948   47      40/ 11/ 14 1011.1R
CAPE HENRY BUOY  1930      53                N/A     2/ 3
1ST LANDING BUOY 1950   46      40/ 16/ 19 1011.8R
CAPE CHARLES BUO 1951      51                N/A     3/ 3
64NM E OF VA BCH 1950   49 61  340/ 17/ 21 1011.3R   6/ 5   2/ 8
DUCK PIER NC     1948   52 53  250/  5/  7 1010.4R
44100 DUCK FRF   1945      54                N/A     2/ 4
44056 DUCK FRF   2000      55                N/A     2/ 3
OREGON INLET NC  1936   53 42  290/  7/ 10 1010.7R
HATTERAS NC      1948   51 51  260/  5/  7 1011.0R
DIAMOND SHLS NC  1950   56 74  290/ 16/ 19 1011.5R   8/ 9   7/ 9
CAPE LOOKOUT NC  1900          260/ 11/ 13 1011.2F
$$




USA.gov is the U.S. government's official web portal to all federal, state and local government web resources and services.